Tulsa, OK

8:55 AM CST on February 19, 2017 (GMT -0600)
Tulsa International

Weather History for KTUL - October, 2012

Change the Weather History Date:

Wednesday, October 3, 2012

  Actual Average Record
Temperature  
Mean Temperature 65 °F 66 °F  
Max Temperature 80 °F 77 °F 95 °F (1963)
Min Temperature 49 °F 55 °F 37 °F (2010)
Degree Days  
Heating Degree Days 0 3  
Month to date heating degree days 0 9  
Since 1 July heating degree days 5 33  
Cooling Degree Days 0 4  
Month to date cooling degree days 7 12  
Year to date cooling degree days 2620 1977  
Growing Degree Days 14 (Base 50)    
Moisture  
Dew Point 50 °F    
Average Humidity 61    
Maximum Humidity 89    
Minimum Humidity 33    
Precipitation  
Precipitation 0.00 in 0.12 in 1.74 in (1926)
Month to date precipitation 0.06 0.37  
Year to date precipitation 24.09 32.11  
Sea Level Pressure  
Sea Level Pressure 29.93 in    
Wind  
Wind Speed 7 mph (South)    
Max Wind Speed 18 mph    
Max Gust Speed 23 mph    
Visibility 10 miles    
Events      
T = Trace of Precipitation, MM = Missing Value Source: NWS Daily Summary

Daily Weather History Graph

Daily Weather History Graph

Search for Another Location

Airport or City:

Trip Planner

Search our weather history database for the weather conditions in past years. The results will help you decide how hot, cold, wet, or windy it might be!

Date:

Astronomy

Oct. 03, 2012 Rise Set
Actual Time 7:20 AM CDT 7:03 PM CDT
Civil Twilight 6:55 AM CDT 7:29 PM CDT
Nautical Twilight 6:25 AM CDT 7:58 PM CDT
Astronomical Twilight 5:55 AM CDT 8:28 PM CDT
Moon 9:03 PM CDT (10/3) 10:37 AM CDT (10/3)
Length of Visible Light 12h 34m
Length of Day
11h 42m
Waning Gibbous, 88% of the Moon is Illuminated
Oct 3
Waning Gibbous
Oct 8
Last Quarter
Oct 15
New
Oct 21
First Quarter
Oct 29
Full

Hourly Weather History & Observations

Time (CDT) Temp. Dew Point Humidity Pressure Visibility Wind Dir Wind Speed Gust Speed Precip Events Conditions
12:53 AM 55.9 °F 48.9 °F 77% 29.91 in 10.0 mi Calm Calm - N/A   Clear
1:53 AM 54.0 °F 48.0 °F 80% 29.92 in 10.0 mi Calm Calm - N/A   Clear
2:53 AM 53.1 °F 46.9 °F 80% 29.92 in 10.0 mi Calm Calm - N/A   Clear
3:53 AM 51.1 °F 46.9 °F 86% 29.92 in 10.0 mi Calm Calm - N/A   Clear
4:53 AM 51.1 °F 46.9 °F 86% 29.92 in 10.0 mi Calm Calm - N/A   Clear
5:53 AM 52.0 °F 48.0 °F 86% 29.94 in 10.0 mi Calm Calm - N/A   Clear
6:53 AM 51.1 °F 46.9 °F 86% 29.95 in 10.0 mi Calm Calm - N/A   Clear
7:53 AM 52.0 °F 48.0 °F 86% 29.96 in 10.0 mi Calm Calm - N/A   Clear
8:53 AM 57.9 °F 51.1 °F 78% 29.97 in 10.0 mi Calm Calm - N/A   Clear
9:53 AM 64.9 °F 50.0 °F 58% 29.98 in 10.0 mi SSE 4.6 mph - N/A   Clear
10:53 AM 72.0 °F 51.1 °F 48% 29.98 in 10.0 mi South 6.9 mph - N/A   Clear
11:53 AM 75.9 °F 50.0 °F 40% 29.97 in 10.0 mi South 10.4 mph - N/A   Partly Cloudy
12:53 PM 77.0 °F 53.1 °F 43% 29.95 in 10.0 mi SSW 10.4 mph 20.7 mph N/A   Scattered Clouds
1:53 PM 78.1 °F 51.1 °F 39% 29.91 in 10.0 mi South 13.8 mph 21.9 mph N/A   Scattered Clouds
2:53 PM 78.1 °F 51.1 °F 39% 29.90 in 10.0 mi South 13.8 mph - N/A   Scattered Clouds
3:53 PM 80.1 °F 48.0 °F 32% 29.90 in 10.0 mi SSW 10.4 mph 17.3 mph N/A   Partly Cloudy
4:53 PM 79.0 °F 48.0 °F 34% 29.89 in 10.0 mi South 12.7 mph - N/A   Partly Cloudy
5:53 PM 79.0 °F 48.9 °F 35% 29.90 in 10.0 mi South 11.5 mph 21.9 mph N/A   Clear
6:53 PM 75.9 °F 48.0 °F 37% 29.90 in 10.0 mi South 11.5 mph - N/A   Clear
7:53 PM 71.6 °F 50.0 °F 46% 29.93 in 10.0 mi SSE 5.8 mph - N/A   Clear
8:53 PM 71.1 °F 51.1 °F 49% 29.94 in 10.0 mi SSE 8.1 mph - N/A   Clear
9:53 PM 70.0 °F 52.0 °F 53% 29.95 in 10.0 mi SSE 8.1 mph - N/A   Clear
10:53 PM 70.0 °F 52.0 °F 53% 29.97 in 10.0 mi South 10.4 mph - N/A   Clear
11:53 PM 69.1 °F 53.1 °F 57% 29.97 in 10.0 mi South 10.4 mph - N/A   Clear